Wind_Speed
27 28 28 28 28 28 29 31 33 35 36 36 35 35 35 35 35 37 38 40 41 42 43 43 42 40 37 35 34 34 34 34 35 36 37 38 39 39 39 39 39 39 40 41 41 42 43 45 46 48 50 50 51 52 54 54 57 58 57 57 55 53 53 56 59 61 61 61 62 63 63 62 62 61 61 62 61 60 62 62 63 62 61 59 53 53 57 55
29 29 29 29 29 29 30 31 33 35 36 35 35 35 35 35 36 37 38 40 42 43 44 43 42 41 38 36 35 35 35 36 38 38 39 41 41 42 42 42 43 43 43 44 44 45 46 47 48 50 52 53 54 55 56 56 57 56 57 57 53 53 55 59 63 65 65 64 64 65 65 64 63 62 62 62 61 61 62 62 64 64 62 61 55 56 59 56
30 30 30 30 30 31 31 32 33 34 36 35 35 35 35 35 36 38 39 41 42 44 45 44 43 41 39 37 36 36 36 38 40 40 42 44 44 44 44 45 46 46 47 47 48 49 50 50 51 52 54 56 57 58 58 59 59 58 57 56 51 53 59 61 65 67 66 65 66 67 66 64 62 62 63 63 62 61 62 63 64 65 63 61 58 60 62 58
30 30 30 31 31 32 32 33 34 35 36 35 35 35 35 36 37 39 40 42 43 45 46 46 44 42 40 38 38 38 38 40 42 42 43 46 46 46 47 48 49 50 50 51 52 53 53 54 54 55 56 58 60 60 62 63 63 61 58 56 54 57 61 63 66 67 65 66 69 70 68 65 63 64 65 63 63 61 62 63 63 65 64 61 58 60 63 61
29 30 30 31 32 32 33 34 34 35 36 36 36 36 36 37 38 39 41 42 44 46 47 47 46 44 42 40 39 40 39 41 43 44 45 47 47 48 49 51 52 53 54 55 56 57 57 57 58 58 59 61 62 62 64 66 67 64 60 59 60 61 63 64 66 66 66 68 69 69 67 66 65 65 65 64 62 61 62 63 63 65 66 62 58 60 63 59
29 30 30 31 32 32 33 34 35 36 36 37 37 37 38 38 38 40 42 43 45 47 48 49 48 46 44 42 40 40 40 41 44 46 47 48 49 50 52 54 56 57 59 60 61 61 61 61 61 61 62 63 64 65 66 69 70 66 63 64 65 65 65 65 66 66 67 68 68 68 67 68 68 67 66 66 64 64 65 63 63 65 67 64 58 59 60 55
30 30 31 31 32 32 33 34 35 36 37 37 38 39 39 39 39 41 43 44 45 47 49 50 49 48 46 44 41 41 41 43 45 47 49 50 51 54 56 58 60 61 63 64 64 64 63 63 63 63 63 65 67 66 66 70 71 68 67 68 69 69 69 68 69 69 69 68 66 67 67 67 67 67 68 68 67 66 68 67 64 64 67 66 61 60 58 53
30 31 31 31 32 32 33 34 35 36 37 38 38 40 40 40 41 42 44 45 46 48 50 51 51 50 48 45 43 42 43 45 48 49 51 53 54 57 60 62 64 66 67 67 66 65 64 63 63 64 64 67 68 66 67 70 72 72 73 73 72 72 71 71 72 72 71 68 66 66 66 66 66 68 71 70 69 68 70 69 66 65 66 66 62 62 61 54
31 31 32 32 32 32 33 34 35 36 38 38 39 41 41 42 42 43 45 46 47 49 51 52 52 52 50 48 45 44 45 47 50 52 54 55 58 60 63 66 68 70 70 68 66 63 62 61 62 63 65 68 67 66 69 71 73 75 75 75 74 74 73 74 75 74 73 71 69 68 67 65 67 71 71 69 69 69 70 68 66 67 68 68 62 61 63 58
31 31 32 32 32 33 33 34 36 37 38 39 40 41 43 43 44 45 46 47 48 50 52 53 54 54 53 51 48 46 47 49 52 55 57 58 60 63 66 70 72 72 69 65 62 59 58 57 58 60 62 66 65 67 70 71 74 75 74 76 77 77 77 78 78 77 77 76 73 70 70 69 70 74 70 68 70 70 71 70 70 70 70 70 61 57 59 59
31 31 31 32 33 33 34 35 36 37 39 40 41 42 44 45 45 46 47 48 49 51 53 54 56 56 55 54 51 49 49 51 54 57 59 61 63 66 70 73 73 70 65 60 56 54 53 54 55 57 59 61 62 66 69 70 73 74 74 76 78 79 80 80 80 80 80 80 77 75 75 74 75 74 66 66 71 72 73 73 74 72 70 70 62 58 58 58
32 31 31 32 33 34 34 36 37 38 40 41 42 43 45 46 47 48 48 49 50 52 54 56 57 57 57 56 53 51 51 54 58 60 62 63 66 70 74 75 71 65 59 54 52 52 52 53 54 56 57 57 60 64 65 66 70 74 74 75 78 80 80 81 81 82 82 82 81 79 79 77 75 68 62 67 73 74 74 74 76 74 71 71 64 59 59 60
33 33 32 33 34 35 36 37 38 40 41 42 43 44 45 47 48 49 50 50 52 53 55 57 58 59 59 58 54 52 54 57 61 63 64 67 70 74 76 73 66 58 54 52 51 52 53 54 55 56 57 57 60 62 62 64 68 71 72 73 77 79 79 81 82 84 84 84 85 84 81 77 72 66 67 74 77 76 75 73 76 76 73 71 66 60 61 63
34 34 34 34 35 36 37 38 39 41 42 43 44 45 46 48 49 50 51 51 53 54 56 58 60 60 60 59 56 54 56 60 63 65 68 70 74 76 75 68 59 54 52 52 52 52 53 54 54 56 56 57 59 60 61 63 66 68 69 71 74 77 79 81 84 84 85 86 86 87 80 73 71 71 75 80 79 77 76 73 77 79 74 72 69 64 63 64
35 35 36 36 36 37 38 40 41 42 43 45 45 46 47 48 50 51 52 52 54 55 57 59 61 61 60 59 58 57 59 62 65 68 71 75 78 77 70 60 54 53 53 52 51 50 50 51 51 52 53 55 57 58 61 62 64 67 68 69 71 74 77 80 84 84 84 85 85 85 76 71 74 78 81 82 80 79 76 73 77 81 76 73 72 67 64 63
37 37 37 37 38 38 40 41 42 43 44 46 46 47 47 49 50 52 53 53 54 56 58 60 62 63 61 59 58 60 62 65 68 70 74 78 80 75 64 54 52 52 52 49 47 45 45 46 46 47 48 50 52 54 57 60 62 66 69 69 70 72 74 76 81 83 83 84 83 81 74 73 79 82 84 83 80 80 77 74 77 81 76 74 75 69 66 65
39 39 39 39 39 40 41 43 44 45 46 47 47 47 48 49 51 52 53 53 54 57 59 61 63 64 63 60 59 61 65 68 71 73 77 80 79 71 60 54 53 51 48 45 42 40 39 40 41 42 43 44 47 49 52 54 58 63 65 67 70 72 72 75 79 81 80 80 79 76 74 78 80 81 83 81 80 80 78 76 77 80 77 75 77 71 67 65
40 40 40 40 40 41 42 44 45 46 47 47 48 48 48 50 52 53 53 54 55 57 60 63 64 65 64 63 62 64 68 70 73 77 80 81 75 65 58 56 53 49 44 40 38 36 34 35 36 38 39 40 42 44 46 49 53 57 59 61 65 69 70 72 76 78 77 76 74 74 76 78 77 77 80 81 82 81 79 79 78 79 78 77 78 72 68 65
40 41 41 42 42 42 43 45 46 47 47 48 48 48 49 50 52 53 54 54 56 58 61 64 66 67 65 64 64 66 70 73 76 80 82 81 70 59 56 55 50 44 41 37 34 33 31 31 33 34 35 36 37 39 41 45 49 52 54 56 60 63 65 68 71 75 77 74 72 74 76 75 74 76 80 82 84 82 80 80 79 79 79 78 78 73 70 67
41 41 42 42 43 43 44 45 46 47 47 48 48 48 49 51 52 52 53 55 57 59 61 64 66 67 66 65 66 68 72 75 78 81 82 77 65 56 55 54 48 41 38 34 30 28 26 26 29 31 31 33 34 36 39 42 44 46 49 52 54 56 59 62 66 69 73 71 68 70 71 69 69 74 78 81 84 82 80 80 79 80 80 79 78 75 71 68
41 41 42 42 43 43 44 45 46 46 47 47 47 47 49 52 52 51 51 53 55 58 61 64 66 67 67 66 67 70 73 76 79 82 80 72 62 56 55 52 47 42 37 33 29 24 21 21 23 26 27 29 31 32 35 37 39 42 44 46 49 51 53 56 59 63 65 65 63 65 66 64 66 72 76 78 80 81 80 80 79 80 82 80 78 76 72 70
41 41 41 42 42 43 43 44 45 46 46 46 46 47 50 52 52 52 52 53 55 59 62 65 67 68 67 67 68 71 74 78 81 81 76 67 60 58 55 49 46 43 37 32 29 24 19 18 19 21 23 26 27 28 30 33 35 38 40 42 45 47 48 49 52 56 58 59 59 60 63 63 66 72 75 76 78 80 82 82 82 83 84 81 78 76 74 71
41 41 41 41 41 42 43 44 44 45 45 45 45 47 50 52 52 53 53 54 56 60 63 66 68 68 68 69 70 73 76 79 81 78 70 63 59 59 55 47 44 42 38 33 30 26 21 18 18 17 19 21 23 26 28 31 32 34 37 39 42 43 43 44 46 48 51 52 54 56 57 60 63 70 74 74 76 80 83 84 84 84 84 82 78 77 76 73
40 40 40 40 41 41 42 43 44 44 44 44 45 48 50 51 53 53 54 54 57 60 64 66 68 68 69 69 71 74 77 80 79 72 64 59 58 57 53 47 44 41 36 31 28 26 22 20 19 18 18 18 20 23 26 29 30 33 35 37 38 39 40 40 40 42 45 46 49 50 51 55 58 65 70 71 73 76 79 81 81 82 84 83 79 78 77 73
39 40 39 39 39 40 41 42 43 43 43 43 46 49 51 52 53 53 54 55 58 61 64 67 68 68 69 71 73 76 78 79 75 66 58 56 56 55 50 47 43 38 34 30 27 25 22 19 17 18 18 18 19 21 23 25 27 30 32 34 34 35 36 36 36 37 39 40 42 44 46 52 56 62 66 67 68 70 73 77 79 83 86 83 79 78 77 73
38 39 38 38 38 38 39 41 42 42 43 44 46 48 50 52 53 53 54 56 59 62 65 68 69 68 70 72 74 77 79 77 69 59 54 54 55 52 48 46 42 35 32 30 28 25 23 20 18 16 17 18 19 20 21 22 24 26 28 29 30 31 32 32 32 32 32 33 37 41 45 51 55 59 62 64 65 68 72 77 81 84 85 81 79 79 76 73
36 37 37 37 37 37 38 40 41 42 43 45 47 49 50 52 52 53 54 56 59 62 65 67 68 68 70 72 75 77 78 73 62 54 51 53 53 49 46 44 40 35 31 28 26 23 22 22 19 15 14 16 17 18 19 20 20 22 23 24 25 26 27 28 28 27 28 31 35 38 43 48 52 55 59 62 65 69 73 78 80 82 82 80 79 79 76 75
34 35 36 36 36 36 37 39 41 42 44 46 48 49 50 52 52 53 55 57 60 62 65 68 68 69 70 73 76 77 75 67 56 50 50 51 50 46 42 41 38 34 30 27 25 21 20 21 20 16 14 14 14 14 15 16 17 18 18 19 21 22 23 24 24 25 27 29 33 37 41 46 50 54 57 61 64 69 72 75 78 79 79 79 79 77 77 77
34 34 35 35 35 36 36 38 40 42 45 46 48 50 51 52 52 53 55 58 61 63 66 68 68 69 71 74 77 77 71 60 50 47 49 49 46 42 40 37 34 32 28 25 23 22 20 21 21 18 14 13 12 12 13 14 15 15 14 16 17 19 21 22 22 23 25 27 31 35 40 45 50 53 56 60 64 69 72 74 76 77 78 80 80 79 81 83
34 33 34 35 35 35 37 38 40 42 45 47 48 50 51 51 52 53 55 58 61 64 66 68 69 70 72 75 77 74 65 53 46 46 48 47 43 39 37 35 33 32 29 25 23 23 22 21 22 20 15 11 11 11 11 12 13 13 12 13 14 15 17 19 21 21 22 26 30 35 40 46 50 54 57 62 67 70 73 75 76 78 82 85 86 86 89 89
35 33 33 34 35 35 37 39 40 42 45 47 48 50 51 51 52 53 56 59 61 64 66 68 69 70 73 76 75 67 56 46 43 44 45 43 40 36 34 34 33 32 30 27 26 25 21 20 21 20 15 11 9 9 9 10 12 12 12 11 12 13 15 17 19 20 22 27 31 36 42 47 52 56 59 63 65 67 71 74 79 84 86 87 87 87 88 86
35 33 32 33 34 35 36 38 41 43 45 47 48 49 50 51 52 53 56 60 63 65 67 68 69 71 74 75 70 58 47 41 41 43 43 40 36 32 31 31 31 31 30 28 27 25 22 21 20 19 15 10 9 9 8 8 9 10 11 11 11 12 14 17 19 22 25 29 33 37 43 48 52 56 58 60 62 64 67 72 78 83 84 84 85 84 82 78
34 33 32 32 33 34 36 39 41 44 45 47 48 49 49 51 52 54 57 60 63 66 67 68 70 72 74 72 62 49 40 39 40 41 40 36 32 30 29 28 30 31 30 29 28 27 24 23 22 19 16 11 8 9 8 7 7 8 10 10 10 12 15 17 20 25 29 32 36 40 43 47 52 54 56 59 61 63 65 68 73 76 79 82 83 82 78 73
33 32 31 32 33 34 36 39 41 44 45 46 47 48 49 50 53 56 58 61 64 66 67 69 71 74 73 65 52 41 37 38 39 39 38 33 28 27 26 27 29 30 30 29 28 26 23 22 22 19 17 13 9 8 7 6 5 6 7 8 10 13 15 18 21 26 29 33 38 41 45 49 51 52 55 58 60 62 64 67 71 73 76 79 80 79 75 72
31 31 30 31 32 34 36 39 41 43 45 46 46 46 48 50 53 56 59 61 64 66 67 69 72 74 68 56 43 36 36 38 38 38 36 30 26 25 25 26 28 29 29 28 27 25 23 22 21 19 16 13 9 7 5 4 3 2 3 8 12 13 15 18 23 26 30 34 37 41 46 49 49 51 53 56 59 62 64 67 70 72 75 77 78 78 75 74
30 29 30 30 32 34 36 39 41 43 44 45 46 45 47 50 53 56 59 62 65 66 68 70 73 70 59 46 37 34 36 37 37 36 33 27 24 23 23 25 27 28 28 27 26 24 22 21 21 19 16 12 10 8 6 4 1 1 2 7 11 13 14 18 23 27 29 32 35 40 43 45 47 49 52 55 58 61 64 67 69 72 74 75 77 76 74 74
27 28 29 30 31 33 35 38 40 42 43 44 45 45 47 51 54 57 60 63 65 66 69 72 71 62 48 37 33 34 36 37 36 34 30 24 21 21 22 23 25 26 26 25 24 23 22 22 21 20 17 14 13 11 8 5 1 2 4 6 8 11 14 17 22 27 30 31 35 37 40 43 45 47 49 52 56 59 62 65 68 71 73 75 76 73 70 71
25 26 28 28 30 32 34 37 39 41 42 42 44 46 49 52 55 58 61 64 65 67 70 71 64 51 39 33 32 33 36 36 35 33 27 20 18 18 19 21 23 24 24 24 24 24 25 25 24 22 18 16 15 13 9 5 2 1 3 5 7 9 13 16 20 24 29 32 33 34 37 39 40 41 45 47 50 54 58 62 66 69 72 73 74 73 71 70
23 25 27 27 29 31 33 36 38 39 40 41 43 47 50 53 56 59 61 64 65 68 70 65 53 41 34 32 33 34 35 35 34 31 23 17 15 16 16 19 20 21 22 23 24 25 26 27 27 25 21 18 17 15 11 6 3 1 2 4 6 7 10 14 18 21 24 25 25 29 32 33 33 36 39 41 42 47 52 57 61 65 69 71 72 73 72 70
21 23 25 27 28 31 33 35 37 38 40 42 45 48 51 54 56 59 62 63 66 69 66 56 43 35 31 32 34 35 35 35 33 29 21 14 12 13 14 16 17 18 20 22 24 25 26 27 28 27 24 21 19 16 12 9 5 3 4 5 7 9 9 11 15 19 20 21 22 25 26 28 31 34 36 39 41 45 50 55 59 64 66 67 69 71 71 69
21 22 25 26 28 31 33 34 36 38 40 44 47 49 52 54 57 60 62 63 67 67 58 45 36 32 30 31 34 35 34 34 32 27 19 12 10 11 12 14 15 16 18 21 23 24 25 26 27 27 26 23 20 17 15 11 7 4 5 6 8 11 13 12 12 14 15 17 18 18 20 24 30 34 36 40 43 46 52 57 60 63 65 66 68 70 70 69
21 22 24 26 28 31 32 34 37 39 42 44 48 50 52 55 58 60 61 64 66 60 48 38 33 30 30 32 34 35 34 33 30 25 16 10 7 8 10 11 12 14 17 21 23 24 25 26 26 26 26 25 22 20 17 13 9 6 4 7 8 11 15 15 15 14 14 14 14 13 16 22 28 32 35 38 41 44 50 55 57 60 63 66 68 67 66 67
21 23 24 26 29 31 32 34 38 41 43 45 47 49 52 55 58 59 62 65 61 50 40 35 32 30 31 32 34 35 34 32 29 22 13 8 5 6 7 8 10 12 15 20 22 24 26 27 27 27 27 25 24 22 19 15 11 9 7 8 8 8 11 14 16 16 16 15 14 13 16 21 25 29 32 35 37 40 45 50 53 57 60 63 64 63 62 65
21 22 24 26 29 30 32 35 38 41 44 46 47 49 52 55 57 59 63 62 53 42 36 33 30 30 32 33 33 34 34 32 28 20 11 6 3 3 5 6 9 11 15 20 22 23 26 27 28 29 29 27 25 23 21 17 15 13 12 10 9 9 11 14 17 17 17 18 17 14 15 19 22 25 29 32 35 38 42 46 51 55 58 60 61 60 61 64
21 22 24 27 29 30 32 36 39 41 43 45 47 49 52 54 57 60 61 55 45 39 35 31 30 30 32 34 34 34 34 31 27 18 9 5 3 1 3 4 9 9 14 21 24 24 26 26 27 28 29 30 28 25 22 20 18 16 15 14 13 13 14 14 15 16 17 18 18 15 14 16 18 21 24 28 32 36 39 43 48 53 56 57 58 59 60 62
21 22 24 28 29 30 33 36 39 41 43 45 46 49 52 54 57 60 57 47 40 37 33 30 30 31 33 34 34 34 33 30 25 15 7 5 4 2 1 3 8 9 14 22 24 24 26 26 26 26 27 29 29 28 25 22 20 19 18 17 17 17 17 15 13 12 12 13 13 12 11 11 13 16 19 23 27 31 35 39 44 48 52 54 54 55 57 58
21 22 24 27 29 31 34 36 39 41 43 44 47 50 52 54 57 57 50 41 37 35 32 30 31 32 33 35 35 34 33 29 22 13 5 5 5 4 1 2 7 9 14 21 22 21 23 23 24 25 25 26 28 29 28 25 23 22 21 20 19 17 17 16 13 11 10 9 9 9 8 9 11 13 15 19 22 26 30 35 39 43 47 50 51 52 53 53
21 22 24 27 29 32 34 36 38 40 42 44 47 50 51 54 57 52 43 37 35 33 31 31 31 32 33 35 35 35 32 27 19 10 4 5 7 6 3 3 7 9 13 19 20 19 18 17 19 21 22 24 25 26 28 27 25 25 25 23 21 19 17 16 14 12 11 10 9 8 7 7 8 10 12 14 17 20 24 29 34 38 42 46 48 50 51 51
21 23 25 27 29 31 34 36 39 40 41 44 47 49 51 55 54 46 38 35 34 32 31 31 32 32 33 34 35 34 31 25 16 7 3 6 8 8 5 4 7 10 11 15 18 18 15 15 15 15 16 20 23 23 25 26 26 26 26 26 25 23 22 19 17 16 14 13 12 10 8 7 7 6 7 9 12 15 18 22 26 31 36 41 45 47 49 50
21 23 25 27 29 31 34 36 39 40 41 45 47 48 51 54 49 39 34 33 32 31 32 31 31 31 32 33 35 34 30 23 14 6 3 6 9 9 8 6 7 10 11 11 16 18 15 14 15 13 12 14 18 20 23 25 26 27 27 28 28 27 26 25 23 21 19 17 16 14 13 11 10 9 8 7 7 10 13 16 20 25 30 35 40 44 46 48
22 23 25 27 29 31 33 36 38 40 42 45 47 48 52 51 43 35 32 32 31 31 31 31 30 30 31 33 34 33 30 22 12 6 3 5 8 10 10 8 7 9 11 11 13 17 16 14 14 14 12 12 14 15 18 21 24 25 27 27 28 28 28 27 26 25 24 24 22 22 21 20 18 16 14 12 10 9 10 12 15 19 23 28 34 38 43 46
21 23 24 26 29 31 33 36 38 39 42 44 46 49 51 48 38 31 30 30 30 31 30 30 30 30 31 33 34 33 29 20 11 6 3 4 8 10 11 10 9 9 11 12 12 13 15 15 14 14 14 13 12 12 13 15 17 20 23 24 24 24 24 24 25 25 26 26 27 27 28 27 26 25 23 20 18 15 13 12 13 15 18 22 27 32 37 41
Wind_Direction
302 305 307 309 311 311 310 307 305 304 305 306 309 313 316 318 319 319 320 321 321 322 321 319 316 312 305 301 302 302 303 304 304 305 306 305 303 301 300 299 298 296 293 290 286 282 278 273 269 266 263 261 259 257 255 252 251 250 248 246 244 241 239 238 237 235 233 232 232 232 231 230 230 228 228 229 227 227 226 225 227 225 225 227 223 224 225 221
298 301 303 305 308 310 311 310 308 306 306 307 309 313 315 317 319 319 321 322 324 324 323 321 317 313 307 301 301 302 304 305 304 306 306 304 302 301 300 299 297 295 293 291 288 284 280 276 271 267 264 261 258 257 255 254 252 250 249 246 243 242 239 237 237 235 233 232 232 233 232 231 231 230 229 229 228 227 229 227 228 227 225 227 224 223 225 222
297 298 300 302 304 307 309 311 310 308 307 308 309 311 314 316 318 320 322 323 325 326 325 323 319 315 308 302 301 301 304 305 304 307 306 303 302 300 300 299 297 295 293 291 288 285 282 278 273 268 265 262 259 257 255 254 252 250 249 247 243 242 239 237 237 235 234 233 233 233 233 232 231 232 230 229 228 227 229 228 228 229 227 225 224 225 226 223
297 298 299 301 303 305 307 310 311 310 309 309 309 310 312 315 318 320 321 323 325 326 326 325 321 317 311 304 301 301 304 304 304 307 306 303 302 300 300 299 297 295 293 291 289 286 282 278 274 269 265 262 259 257 255 254 252 250 249 248 245 241 239 238 237 236 235 234 233 233 233 232 231 232 232 230 229 227 228 229 228 229 228 224 222 226 226 223
299 299 299 300 302 304 305 308 310 311 310 309 308 309 312 315 318 319 321 323 325 326 327 326 322 319 314 307 302 301 304 304 304 307 306 304 302 301 301 300 298 296 294 292 290 286 282 278 273 269 265 262 259 256 254 254 252 250 248 247 245 242 241 240 238 236 234 233 234 234 233 232 231 231 232 232 229 228 228 228 228 229 229 224 218 223 224 221
300 301 300 301 302 303 304 306 309 311 311 309 308 308 310 313 316 318 320 322 324 326 327 326 324 320 316 311 306 303 304 304 305 307 306 305 303 302 302 301 299 298 296 294 291 287 282 278 273 268 264 261 258 254 253 252 252 250 248 247 246 244 242 242 241 239 235 233 233 234 233 232 231 230 231 232 229 228 228 227 226 227 229 225 216 220 224 220
301 301 301 301 302 303 304 305 307 310 310 310 308 308 309 312 314 316 319 321 323 325 326 326 324 321 318 313 308 306 305 306 306 307 307 306 304 303 303 303 301 300 298 296 292 287 282 277 272 268 264 260 257 254 252 251 251 250 248 246 245 244 242 241 241 240 237 233 232 233 232 232 232 231 231 231 229 228 228 227 225 226 228 226 217 218 221 219
300 301 302 301 302 303 304 305 307 309 310 310 308 307 308 310 313 314 317 320 322 324 325 326 325 323 319 314 309 306 306 307 308 308 308 306 305 304 304 304 303 302 300 296 291 286 281 276 271 267 262 259 256 254 251 250 249 248 247 245 244 243 242 242 241 241 240 236 233 233 232 231 231 231 230 229 229 229 229 228 226 226 228 227 219 218 220 217
299 301 302 302 303 304 305 306 307 308 310 310 309 307 308 309 311 313 315 319 321 323 324 325 325 324 321 316 310 307 308 308 309 310 309 308 307 306 306 306 305 303 300 295 290 284 279 274 269 265 261 258 255 253 250 248 248 246 245 245 245 244 243 243 242 241 241 239 235 233 231 230 230 230 229 228 228 228 231 230 228 227 229 227 219 217 220 218
298 300 302 303 305 306 308 308 308 309 310 310 309 308 308 308 309 311 314 317 319 321 323 324 325 324 322 318 313 309 309 309 310 311 310 309 308 308 308 308 306 304 299 294 288 282 277 272 268 264 260 257 255 252 249 247 247 245 244 244 244 243 243 242 242 241 241 239 236 233 232 229 230 230 226 227 228 227 229 230 229 226 228 228 219 215 219 219
297 299 302 303 306 308 309 311 311 311 311 311 310 309 308 308 309 310 313 315 318 320 321 324 325 325 323 319 315 312 310 310 312 312 312 311 310 310 310 310 307 303 298 292 286 281 276 271 267 263 260 257 255 252 249 247 246 246 244 243 243 242 242 242 241 241 241 240 237 233 232 229 230 230 225 227 229 227 227 228 229 226 227 228 219 213 217 218
296 299 301 303 305 308 310 312 313 313 313 312 311 310 308 308 309 310 312 314 317 319 321 323 325 325 323 320 316 314 312 313 314 314 313 313 313 313 312 311 307 302 296 290 285 280 276 271 267 263 260 257 254 252 251 249 247 246 244 243 243 242 242 241 241 241 241 240 239 235 232 230 230 229 227 228 229 227 226 226 230 228 226 227 220 212 213 217
295 297 300 302 305 307 310 311 313 314 314 313 312 310 309 309 309 310 311 313 315 318 320 322 324 324 323 320 317 315 314 315 315 315 315 315 315 315 315 312 307 301 295 290 286 281 277 273 268 265 261 258 255 253 251 249 247 247 245 243 242 242 242 242 241 240 240 239 239 237 233 230 229 227 227 229 228 226 224 224 228 229 226 227 221 213 211 214
293 295 298 301 303 305 308 310 312 313 314 314 313 311 310 309 309 310 311 312 315 317 319 322 323 324 323 321 318 317 317 317 317 317 317 317 318 318 316 312 307 302 297 293 289 283 279 274 270 266 262 258 255 254 251 249 248 247 246 244 242 242 241 241 241 240 239 239 238 238 233 228 228 226 226 228 227 226 224 222 226 228 225 225 223 215 212 212
292 293 296 299 301 303 306 308 310 312 313 314 313 312 311 310 309 309 310 312 314 316 319 321 322 323 323 321 319 319 319 319 319 319 319 320 321 320 317 312 307 304 300 295 290 285 280 275 270 266 263 259 256 253 251 248 247 247 246 245 243 242 241 241 242 241 240 239 238 238 232 226 226 226 226 227 227 226 223 220 225 227 224 224 224 217 213 212
290 292 293 296 299 301 303 305 308 310 312 313 313 312 311 310 310 310 310 312 314 316 318 320 322 323 323 322 320 319 320 320 320 321 321 322 323 321 317 313 310 307 302 297 292 286 280 275 271 267 263 259 256 253 251 249 247 245 245 244 243 242 241 241 242 242 241 240 239 237 233 227 226 226 227 226 226 226 223 220 223 227 223 222 224 218 213 211
289 290 292 294 296 299 301 303 306 308 310 312 312 311 311 311 311 310 311 312 314 316 318 320 322 324 323 322 320 320 321 322 322 323 323 325 325 323 320 317 315 310 305 300 295 289 282 276 271 268 263 259 256 252 250 248 247 245 244 244 243 243 241 240 241 242 241 240 239 237 233 231 227 225 226 227 226 226 223 220 222 226 223 222 223 219 214 210
289 290 291 293 295 297 299 302 304 307 309 310 311 310 310 311 312 311 312 312 314 316 318 320 323 324 323 322 321 322 322 323 324 324 326 327 327 324 321 320 318 313 308 304 300 293 285 278 272 268 264 259 255 253 251 248 247 247 246 244 243 243 243 241 241 243 242 240 238 237 234 232 229 225 225 225 225 224 223 221 221 224 223 221 223 219 215 209
290 290 291 293 294 296 298 300 303 305 307 309 309 309 310 312 312 313 313 313 315 317 319 321 323 324 324 322 322 323 324 324 325 327 328 328 327 324 322 321 320 317 313 309 303 295 286 278 271 265 262 260 256 254 251 248 247 246 246 245 243 243 243 242 242 242 243 241 237 236 235 231 228 226 224 223 224 222 221 220 219 222 223 221 221 220 216 210
291 292 293 294 295 297 298 300 302 304 306 308 309 309 310 312 313 314 314 314 316 318 319 321 323 323 324 323 323 324 324 326 327 328 329 328 327 325 325 324 323 322 320 314 306 296 287 277 270 265 261 258 255 252 250 249 248 247 246 246 245 243 242 241 241 241 242 241 237 235 235 231 227 227 225 222 222 221 219 219 218 220 222 220 220 219 216 212
291 292 294 295 297 298 298 300 301 303 305 307 308 309 311 312 313 314 314 314 315 316 318 320 323 324 324 324 324 325 325 327 328 330 329 328 327 327 329 329 327 328 325 318 311 303 292 281 273 268 263 258 256 253 252 251 249 248 247 247 246 244 242 241 241 241 241 241 238 235 234 230 227 227 226 222 221 220 218 217 217 219 221 219 219 218 216 213
291 292 294 296 298 299 299 300 302 304 305 307 308 310 311 313 314 315 315 316 316 317 319 322 324 325 325 325 325 325 326 328 330 331 330 329 329 329 331 333 332 330 327 323 320 315 306 292 281 271 266 262 261 259 256 253 250 249 248 248 247 246 244 242 241 241 241 240 239 235 232 229 224 225 225 221 219 218 217 216 215 217 219 217 217 217 215 213
292 293 295 296 298 299 300 301 303 304 306 307 309 311 313 314 315 315 316 317 318 319 321 323 325 325 325 325 326 326 328 330 331 331 330 329 330 331 333 336 335 332 330 330 328 326 320 308 296 284 273 267 264 261 258 256 254 252 250 248 248 247 246 244 241 240 240 239 238 234 230 227 222 222 222 220 217 216 215 214 213 215 217 216 215 215 215 212
293 295 296 298 299 300 301 303 304 306 307 308 310 312 314 315 316 316 317 318 319 320 322 324 325 325 326 326 327 328 330 331 332 331 330 329 330 332 334 337 337 335 333 332 331 332 330 319 306 296 284 272 263 257 254 254 253 252 251 249 248 248 247 245 242 240 238 236 235 231 227 225 221 220 220 218 216 215 215 213 212 214 217 215 213 214 214 211
294 296 298 299 300 301 303 305 306 308 309 310 312 314 315 316 317 317 318 318 319 321 322 324 326 326 326 327 328 329 331 332 332 331 329 329 331 334 336 337 337 337 336 334 335 337 334 324 308 295 285 276 267 259 254 253 252 251 251 251 250 249 248 246 242 239 235 232 232 229 224 221 218 216 217 216 213 213 214 213 212 213 216 214 211 214 213 210
293 295 298 299 300 302 305 306 308 309 310 311 313 315 316 316 317 318 318 319 320 322 323 325 326 327 327 327 328 330 331 332 332 330 328 330 333 335 337 337 337 339 341 339 340 340 336 331 318 300 288 280 273 269 263 257 254 253 253 252 250 248 247 246 243 238 233 227 226 224 221 218 215 213 214 213 210 209 210 211 211 211 214 213 210 213 213 210
292 294 297 299 300 303 307 309 310 311 311 313 314 316 316 317 318 318 318 319 321 322 324 325 326 327 327 328 329 330 331 332 331 329 330 332 335 337 337 337 338 343 346 344 342 340 338 336 326 310 296 284 278 274 269 265 261 259 257 255 252 248 244 242 239 233 227 222 218 217 217 216 213 211 210 209 207 206 207 209 209 210 212 211 210 212 212 210
290 293 295 297 300 304 308 310 312 312 313 314 315 316 316 317 318 319 319 320 321 323 324 325 326 327 328 328 329 330 331 330 330 330 332 334 336 337 337 338 341 345 348 346 341 340 340 340 335 324 307 292 285 276 268 265 262 260 256 250 246 242 237 233 230 224 219 214 211 210 212 212 210 208 207 207 206 205 206 207 207 207 209 210 209 210 211 210
288 291 293 295 299 304 308 311 312 313 313 315 315 316 316 317 318 319 319 320 322 323 324 326 327 328 328 328 329 330 330 330 331 332 334 335 336 337 337 340 343 347 350 348 344 345 347 346 344 334 319 309 302 284 271 264 257 255 249 241 236 233 229 223 217 216 212 206 203 203 205 208 207 206 205 205 204 204 204 205 205 205 206 208 207 207 209 209
285 291 292 294 298 303 308 311 313 313 314 315 315 315 316 317 319 319 319 320 322 323 325 326 327 328 328 328 329 330 330 331 332 333 334 336 336 337 338 341 345 351 353 351 352 353 352 351 348 338 325 317 309 293 283 275 262 251 240 233 229 225 223 217 209 205 202 198 197 197 200 203 204 202 202 203 203 202 202 202 202 203 205 206 204 205 207 207
283 290 292 293 297 302 307 311 312 313 314 315 315 315 317 318 319 320 320 321 322 324 326 326 327 327 327 327 329 329 329 331 333 333 335 336 336 337 340 343 349 355 356 356 358 356 354 355 351 340 329 321 313 299 287 279 270 254 235 221 218 217 214 212 203 193 191 192 191 193 198 200 201 201 200 202 203 202 202 201 201 203 205 207 206 207 209 206
281 287 291 293 296 302 306 310 312 313 314 315 315 316 317 319 319 320 321 321 323 325 326 326 326 327 327 327 328 329 329 331 333 334 336 336 336 337 341 347 354 357 358 360 0 357 358 0 355 344 336 329 319 308 290 277 275 262 241 218 207 210 208 204 196 187 186 188 189 192 197 199 201 202 200 201 202 202 202 203 204 206 206 206 207 209 210 206
281 285 290 293 296 302 306 309 311 312 314 315 315 316 318 319 319 320 321 322 323 325 326 326 326 326 326 327 328 329 329 333 334 335 337 336 336 338 343 352 359 359 360 2 2 1 2 2 359 351 344 337 326 316 304 292 283 264 247 223 202 202 202 196 190 188 187 188 190 192 196 200 202 202 200 200 200 200 202 203 206 208 207 206 207 209 209 204
282 285 289 293 296 301 305 308 310 312 314 315 316 317 318 319 320 320 322 323 324 326 326 326 326 325 326 327 328 329 331 334 335 336 337 336 336 339 345 355 1 1 2 2 3 5 6 5 3 358 347 339 333 325 312 302 287 262 249 226 207 199 196 190 188 190 190 191 193 194 195 200 202 202 201 200 199 199 200 202 205 207 208 208 208 209 207 203
285 286 289 293 297 301 304 307 309 312 314 315 316 318 319 319 320 321 322 324 325 326 326 326 325 325 326 328 329 331 333 335 336 337 338 337 337 342 349 358 2 3 4 3 3 7 11 9 7 8 359 346 343 341 317 294 283 278 249 224 211 198 194 192 189 191 194 196 197 196 198 201 201 202 202 201 200 199 199 200 203 206 208 208 209 209 207 202
288 288 290 293 296 299 303 306 309 312 314 315 316 318 319 320 321 321 322 324 325 326 325 325 325 325 327 329 331 333 335 336 338 338 338 337 337 345 354 360 3 4 6 6 6 10 17 16 13 15 14 5 2 1 340 316 282 132 198 225 218 200 193 194 193 193 196 200 201 200 202 203 202 202 203 202 201 200 200 200 201 204 207 208 210 211 207 202
291 291 292 295 297 300 304 307 310 313 315 316 317 319 320 321 321 322 324 325 325 325 325 324 325 326 328 330 332 335 336 337 338 339 339 336 338 348 356 0 4 7 8 10 12 16 22 24 22 20 20 21 19 13 4 355 350 170 186 212 217 202 192 192 196 197 196 200 204 203 204 205 204 204 204 203 203 202 201 201 202 204 205 207 210 212 210 203
291 292 292 294 298 301 305 307 311 314 315 317 319 320 321 321 322 323 325 325 325 325 325 325 326 328 330 332 334 336 337 338 339 340 339 335 339 349 357 2 7 9 11 15 20 25 29 29 29 26 24 26 24 18 14 15 7 229 196 192 197 199 193 190 196 201 202 205 206 203 204 206 207 207 208 206 205 205 204 202 203 205 206 207 209 211 211 205
290 292 293 295 299 301 304 308 312 315 317 319 320 321 322 322 323 324 325 325 325 325 325 326 328 330 332 333 335 338 338 338 338 340 337 333 338 347 357 6 9 11 17 21 26 33 37 37 35 33 31 32 29 21 17 22 35 76 167 180 181 185 189 189 190 197 207 213 212 208 206 204 206 211 212 210 208 208 208 206 205 207 208 209 209 210 210 206
286 290 294 299 302 303 306 310 314 317 319 320 321 321 322 322 323 324 325 325 325 325 326 327 330 332 334 335 336 338 339 338 338 338 335 329 336 346 358 10 12 14 22 28 31 38 44 45 43 39 38 39 37 30 26 28 41 80 129 161 169 162 166 182 189 192 199 205 208 209 207 203 205 209 211 211 208 206 208 208 207 208 210 210 210 211 211 207
285 291 295 299 302 303 306 311 315 318 319 320 321 321 322 322 324 325 325 326 325 326 327 330 331 333 335 335 335 337 338 338 337 337 331 323 333 347 359 13 16 17 28 34 35 40 46 50 50 46 43 42 42 41 38 36 42 71 124 156 166 155 146 156 178 185 188 195 200 202 203 205 209 211 210 210 208 205 205 207 208 209 210 211 212 212 212 209
286 292 296 299 300 302 307 312 316 317 318 319 320 321 322 323 324 325 326 326 326 327 329 331 333 334 336 336 336 337 338 338 337 335 327 317 331 347 355 16 23 22 34 41 38 39 43 47 50 50 48 46 45 46 45 44 48 60 110 143 154 156 152 150 158 164 170 178 182 186 198 207 212 214 214 213 211 208 207 208 209 210 210 212 213 213 212 210
287 292 295 297 298 302 308 313 316 317 317 318 319 321 323 324 324 325 326 326 327 329 332 333 334 336 337 337 337 337 338 337 335 333 322 306 320 343 350 24 35 30 43 48 42 40 42 43 45 46 47 47 47 48 50 53 61 70 91 119 131 146 150 145 144 149 154 156 157 172 194 207 213 215 216 216 214 213 211 209 210 211 212 214 215 215 212 212
289 293 295 296 298 303 310 314 315 317 318 319 320 322 324 324 325 326 327 327 329 332 333 333 336 337 337 337 337 338 338 337 334 330 317 288 286 339 346 32 49 44 54 57 49 45 43 42 41 40 41 44 45 49 52 56 66 77 86 98 109 116 123 130 134 140 148 148 147 163 190 204 211 215 216 216 216 215 213 211 211 213 214 214 216 216 213 213
289 293 294 296 299 304 311 313 314 316 318 320 321 323 324 325 326 327 328 329 331 333 334 335 338 339 338 337 338 339 338 336 333 327 309 267 232 327 338 43 62 58 65 67 59 53 49 44 42 40 39 41 43 47 53 59 66 77 86 92 97 102 106 117 128 140 151 151 150 161 183 199 210 215 217 218 217 216 215 213 213 214 216 216 216 216 215 214
287 292 294 297 301 306 311 314 315 317 319 321 323 324 326 327 328 328 329 330 332 333 335 338 339 339 338 338 340 341 338 336 331 324 300 247 208 170 315 61 77 75 79 78 69 59 53 47 44 43 41 41 44 47 53 61 69 77 85 91 95 100 103 108 119 132 140 142 143 153 172 194 208 214 218 221 221 220 218 216 216 216 218 219 218 217 217 216
286 291 293 296 302 308 312 314 316 318 321 322 324 325 327 328 329 330 330 331 333 335 337 339 338 338 339 339 341 341 339 336 330 322 288 234 199 167 189 93 94 93 94 89 77 62 54 48 44 44 44 44 46 50 55 61 71 77 81 85 90 95 100 105 108 112 117 123 131 144 165 190 203 209 215 221 223 223 221 219 218 218 219 220 221 220 219 218
285 290 292 297 303 308 311 314 317 320 322 324 325 326 327 329 330 331 332 332 335 339 339 338 337 338 339 341 342 342 340 336 331 321 279 225 196 172 168 130 111 112 109 100 86 69 62 58 48 43 45 49 50 53 58 63 72 80 82 83 85 87 89 91 93 94 100 108 115 125 149 176 193 204 212 217 219 221 222 221 220 220 220 220 222 222 221 219
283 288 292 297 303 307 311 315 318 322 324 325 326 327 328 330 331 332 333 335 339 342 341 338 338 338 340 342 343 343 342 338 332 321 272 219 198 178 168 155 129 126 125 112 99 87 79 78 69 51 45 52 55 59 64 67 72 79 84 86 86 87 87 88 88 90 94 96 100 107 121 137 152 171 190 202 209 211 214 217 219 220 221 221 222 222 222 220
281 286 291 296 302 307 312 316 320 323 325 326 327 328 329 331 333 333 335 339 343 344 341 340 339 340 342 344 344 345 345 341 334 324 275 218 200 183 171 164 144 139 142 128 112 104 98 93 88 77 62 61 64 68 72 76 78 80 84 86 87 88 89 89 91 91 93 95 97 100 104 110 116 122 132 149 173 191 198 204 210 215 218 220 221 222 222 221
281 286 290 296 302 307 312 317 322 325 326 326 327 328 330 333 334 335 339 344 347 346 343 342 342 342 345 347 347 348 347 344 337 328 291 220 201 189 177 167 155 150 153 146 126 116 112 106 99 94 87 80 80 81 81 81 84 86 88 88 89 89 88 89 91 93 94 96 97 97 98 98 99 101 105 113 123 142 164 180 192 202 209 214 217 220 221 222
280 286 290 296 303 308 313 319 323 325 325 326 328 329 331 333 334 337 343 348 350 348 346 346 346 346 348 349 350 350 350 348 340 333 306 226 200 193 185 173 164 161 162 161 149 129 123 123 117 108 102 93 90 95 97 93 90 91 92 92 91 89 88 90 93 97 99 100 101 102 101 99 97 97 98 101 104 110 123 140 159 177 191 201 208 213 217 220
Height
10720 10719 10717 10716 10714 10712 10710 10708 10706 10705 10703 10701 10700 10698 10696 10693 10691 10689 10687 10684 10682 10679 10676 10674 10671 10669 10667 10666 10664 10662 10660 10659 10657 10655 10653 10651 10649 10647 10646 10644 10643 10642 10641 10640 10639 10638 10637 10636 10637 10636 10635 10636 10637 10637 10637 10639 10639 10641 10645 10650 10657 10663 10667 10666 10664 10665 10668 10670 10671 10673 10676 10681 10685 10690 10694 10697 10704 10706 10707 10711 10713 10717 10721 10724 10732 10734 10731 10737
10717 10716 10714 10713 10711 10710 10708 10706 10704 10702 10700 10699 10697 10695 10693 10690 10688 10686 10684 10681 10678 10675 10672 10670 10667 10665 10663 10661 10660 10658 10656 10654 10652 10650 10649 10646 10644 10642 10641 10639 10638 10636 10635 10634 10633 10632 10631 10630 10629 10629 10628 10629 10629 10629 10630 10631 10631 10635 10638 10642 10652 10656 10657 10655 10653 10655 10659 10663 10664 10665 10670 10675 10680 10685 10689 10693 10698 10700 10703 10707 10708 10711 10716 10721 10729 10728 10725 10732
10714 10713 10712 10710 10708 10707 10705 10703 10701 10699 10697 10696 10694 10692 10690 10687 10685 10682 10680 10677 10674 10671 10669 10666 10663 10661 10659 10657 10656 10654 10652 10650 10647 10646 10644 10640 10638 10637 10635 10634 10632 10630 10629 10627 10626 10625 10623 10622 10622 10621 10620 10620 10621 10621 10622 10622 10624 10628 10630 10636 10646 10646 10644 10645 10644 10646 10652 10657 10658 10660 10664 10671 10677 10680 10682 10687 10691 10696 10698 10701 10703 10705 10710 10718 10723 10721 10722 10729
10711 10710 10709 10707 10705 10704 10702 10700 10698 10696 10694 10693 10691 10689 10686 10684 10682 10679 10676 10673 10670 10668 10665 10662 10659 10657 10654 10653 10651 10649 10648 10645 10641 10641 10639 10635 10633 10631 10629 10627 10625 10623 10622 10620 10619 10617 10615 10614 10613 10612 10612 10611 10611 10613 10613 10613 10615 10619 10624 10631 10636 10633 10632 10634 10635 10640 10646 10649 10649 10652 10658 10666 10672 10672 10676 10681 10685 10691 10693 10695 10698 10699 10703 10712 10718 10716 10716 10724
10708 10707 10706 10704 10702 10701 10699 10697 10695 10693 10691 10689 10687 10685 10683 10681 10678 10675 10673 10670 10667 10664 10661 10658 10655 10652 10650 10648 10646 10644 10643 10641 10636 10635 10634 10630 10627 10625 10623 10620 10618 10616 10614 10612 10610 10608 10607 10605 10604 10603 10602 10601 10601 10604 10604 10603 10605 10610 10618 10621 10622 10623 10623 10625 10628 10633 10637 10639 10642 10647 10655 10661 10664 10666 10671 10674 10680 10686 10687 10689 10691 10692 10695 10705 10713 10708 10709 10720
10705 10704 10703 10701 10699 10698 10696 10694 10692 10690 10688 10686 10684 10682 10680 10677 10675 10672 10669 10666 10663 10660 10657 10654 10651 10648 10645 10643 10641 10639 10638 10636 10632 10629 10627 10624 10621 10618 10616 10613 10610 10608 10605 10603 10600 10598 10596 10594 10593 10592 10592 10591 10590 10592 10594 10593 10594 10602 10610 10611 10612 10613 10615 10618 10620 10624 10627 10631 10636 10642 10648 10652 10655 10660 10664 10667 10674 10678 10678 10681 10684 10687 10688 10696 10707 10703 10706 10718
10702 10701 10699 10698 10696 10695 10693 10691 10688 10687 10685 10682 10680 10678 10676 10674 10671 10668 10665 10662 10659 10657 10653 10650 10647 10644 10641 10638 10636 10634 10632 10630 10627 10624 10621 10617 10615 10611 10608 10605 10602 10598 10595 10592 10589 10586 10584 10582 10581 10580 10581 10579 10576 10581 10585 10583 10586 10594 10598 10599 10601 10602 10606 10609 10610 10613 10616 10623 10630 10635 10641 10645 10651 10655 10656 10660 10666 10669 10670 10674 10678 10682 10683 10688 10701 10701 10704 10714
10700 10698 10696 10695 10693 10692 10690 10688 10685 10683 10681 10679 10677 10675 10672 10670 10667 10664 10661 10659 10656 10653 10650 10646 10643 10639 10636 10634 10631 10629 10627 10624 10621 10618 10615 10611 10608 10604 10600 10596 10592 10588 10583 10579 10576 10573 10571 10569 10568 10567 10568 10564 10565 10572 10574 10573 10576 10580 10583 10586 10590 10592 10597 10600 10601 10604 10608 10617 10624 10628 10633 10639 10644 10644 10645 10652 10659 10662 10663 10668 10674 10678 10678 10682 10694 10698 10700 10709
10697 10695 10693 10691 10690 10688 10687 10684 10682 10680 10678 10676 10674 10671 10669 10666 10664 10661 10658 10655 10652 10649 10645 10642 10639 10635 10631 10628 10626 10624 10621 10619 10615 10611 10608 10604 10600 10596 10591 10586 10582 10576 10571 10567 10562 10560 10558 10557 10555 10555 10555 10551 10555 10561 10561 10563 10563 10566 10572 10576 10580 10584 10587 10589 10592 10596 10600 10606 10612 10618 10625 10630 10633 10630 10637 10648 10653 10657 10659 10664 10669 10672 10671 10673 10687 10695 10698 10706
10694 10692 10690 10688 10686 10685 10683 10681 10679 10677 10674 10672 10670 10668 10665 10662 10660 10657 10654 10651 10648 10645 10641 10638 10634 10630 10626 10622 10620 10618 10615 10612 10609 10605 10601 10597 10592 10587 10582 10576 10570 10564 10559 10554 10549 10547 10545 10544 10542 10542 10542 10540 10545 10548 10547 10551 10550 10554 10563 10566 10569 10572 10575 10578 10581 10586 10589 10593 10601 10609 10614 10619 10619 10617 10632 10644 10645 10649 10652 10655 10659 10663 10666 10667 10682 10693 10696 10701
10690 10689 10687 10685 10683 10682 10680 10678 10675 10673 10671 10669 10666 10664 10661 10659 10656 10653 10650 10647 10643 10640 10637 10633 10629 10625 10621 10617 10614 10612 10609 10605 10602 10598 10593 10589 10584 10578 10572 10564 10557 10551 10546 10541 10537 10535 10533 10532 10531 10530 10530 10532 10535 10534 10534 10540 10541 10544 10551 10554 10556 10559 10563 10567 10571 10576 10578 10582 10589 10597 10599 10604 10605 10611 10633 10640 10636 10639 10642 10645 10649 10656 10662 10663 10675 10688 10691 10694
10687 10686 10684 10682 10680 10678 10677 10674 10672 10670 10668 10665 10663 10660 10658 10655 10652 10649 10646 10643 10639 10636 10632 10628 10624 10620 10616 10611 10608 10606 10602 10598 10594 10590 10585 10580 10575 10568 10561 10553 10545 10538 10533 10530 10527 10525 10522 10521 10520 10519 10520 10523 10523 10522 10525 10531 10531 10532 10538 10543 10545 10547 10552 10557 10561 10564 10566 10570 10576 10581 10585 10593 10601 10618 10635 10630 10622 10627 10633 10639 10643 10649 10656 10658 10668 10681 10686 10686
10684 10682 10681 10679 10677 10675 10673 10671 10669 10666 10664 10662 10659 10657 10654 10651 10648 10645 10641 10638 10635 10631 10628 10624 10620 10615 10610 10605 10602 10600 10595 10591 10586 10581 10577 10572 10566 10558 10549 10540 10533 10527 10522 10520 10517 10514 10512 10510 10510 10509 10510 10512 10511 10513 10517 10520 10520 10522 10527 10532 10534 10536 10541 10546 10548 10550 10553 10558 10562 10564 10574 10589 10603 10618 10621 10609 10608 10616 10624 10633 10635 10641 10650 10654 10663 10674 10679 10681
10681 10679 10677 10675 10673 10671 10669 10667 10665 10663 10660 10658 10655 10653 10650 10647 10644 10640 10637 10634 10630 10627 10623 10619 10615 10610 10605 10599 10595 10593 10589 10584 10578 10572 10567 10562 10556 10548 10537 10528 10521 10517 10513 10509 10506 10504 10500 10499 10498 10498 10499 10501 10501 10503 10507 10509 10510 10512 10516 10520 10523 10526 10531 10533 10533 10536 10541 10546 10549 10551 10565 10586 10598 10603 10599 10593 10599 10606 10615 10627 10628 10631 10642 10648 10655 10666 10672 10677
10677 10676 10674 10672 10670 10668 10666 10664 10661 10659 10657 10654 10651 10649 10646 10643 10639 10636 10633 10629 10626 10622 10618 10614 10610 10606 10601 10594 10589 10586 10582 10577 10571 10565 10557 10551 10543 10536 10527 10519 10512 10507 10503 10499 10496 10493 10490 10488 10487 10487 10488 10489 10491 10493 10495 10498 10500 10502 10504 10508 10512 10515 10520 10522 10521 10525 10529 10534 10538 10542 10559 10579 10584 10583 10581 10582 10591 10598 10607 10619 10620 10623 10635 10643 10648 10658 10667 10674
10674 10672 10670 10668 10666 10664 10662 10660 10657 10655 10653 10650 10648 10645 10642 10639 10635 10632 10629 10625 10622 10617 10613 10609 10604 10600 10596 10591 10585 10579 10575 10570 10564 10558 10550 10541 10531 10522 10515 10510 10505 10498 10492 10488 10485 10483 10480 10478 10477 10477 10478 10479 10480 10483 10484 10487 10490 10491 10493 10497 10501 10504 10509 10512 10511 10514 10518 10523 10528 10536 10552 10563 10564 10567 10570 10576 10586 10591 10601 10612 10614 10617 10630 10638 10641 10651 10661 10668
10670 10668 10667 10665 10663 10660 10658 10656 10653 10651 10649 10646 10644 10641 10638 10635 10631 10628 10625 10621 10617 10613 10608 10604 10599 10594 10589 10585 10581 10574 10568 10562 10555 10549 10541 10532 10522 10511 10503 10499 10495 10489 10483 10479 10476 10474 10471 10470 10469 10469 10469 10470 10471 10473 10475 10477 10479 10479 10482 10487 10491 10493 10498 10502 10501 10501 10506 10512 10519 10528 10539 10542 10549 10559 10565 10573 10581 10585 10595 10605 10608 10612 10623 10631 10634 10645 10655 10662
10666 10664 10663 10661 10659 10657 10654 10652 10650 10647 10645 10643 10640 10637 10634 10631 10628 10624 10620 10617 10613 10609 10603 10598 10593 10588 10582 10577 10573 10567 10561 10555 10547 10540 10532 10523 10514 10503 10496 10491 10486 10480 10475 10471 10468 10465 10464 10462 10461 10461 10461 10462 10463 10465 10467 10469 10469 10470 10474 10479 10481 10482 10487 10492 10493 10493 10495 10502 10511 10518 10523 10529 10541 10553 10559 10565 10570 10577 10587 10596 10602 10607 10615 10623 10629 10640 10650 10659
10662 10660 10659 10657 10655 10654 10651 10648 10646 10643 10641 10639 10636 10633 10630 10627 10624 10619 10615 10611 10607 10604 10598 10592 10587 10582 10577 10571 10566 10561 10553 10547 10539 10530 10521 10513 10507 10499 10491 10485 10480 10474 10468 10465 10461 10458 10457 10455 10454 10454 10454 10455 10456 10458 10460 10461 10461 10463 10466 10468 10471 10474 10478 10481 10484 10485 10484 10491 10501 10506 10510 10520 10533 10541 10547 10553 10558 10567 10579 10587 10595 10601 10606 10616 10625 10634 10644 10653
10658 10656 10655 10653 10651 10650 10647 10645 10642 10640 10637 10634 10632 10629 10626 10623 10620 10616 10612 10606 10602 10599 10594 10589 10584 10577 10572 10566 10560 10554 10548 10540 10532 10523 10514 10505 10499 10493 10486 10478 10473 10468 10462 10459 10456 10453 10451 10449 10448 10447 10448 10449 10450 10451 10452 10453 10455 10456 10458 10459 10462 10464 10468 10471 10473 10474 10474 10480 10490 10496 10502 10513 10525 10531 10536 10543 10550 10561 10572 10579 10588 10594 10599 10610 10620 10629 10639 10648
10654 10652 10651 10649 10647 10645 10643 10641 10638 10636 10633 10631 10628 10625 10622 10619 10617 10614 10611 10606 10600 10596 10591 10585 10580 10573 10567 10561 10555 10548 10542 10535 10526 10517 10507 10499 10492 10486 10480 10473 10466 10461 10457 10453 10451 10448 10446 10444 10443 10442 10443 10443 10444 10445 10446 10448 10449 10450 10451 10452 10454 10455 10458 10462 10464 10466 10467 10472 10481 10489 10495 10505 10516 10522 10527 10535 10545 10555 10565 10573 10581 10586 10592 10603 10613 10623 10633 10641
10650 10649 10647 10646 10644 10641 10639 10637 10635 10632 10629 10627 10624 10621 10618 10615 10612 10609 10606 10602 10597 10591 10586 10580 10574 10567 10561 10555 10550 10544 10536 10528 10519 10509 10500 10492 10486 10479 10474 10468 10461 10457 10453 10449 10445 10443 10441 10440 10438 10438 10438 10438 10439 10440 10441 10442 10442 10443 10445 10446 10446 10447 10450 10454 10457 10458 10460 10465 10472 10478 10485 10493 10503 10509 10515 10525 10535 10545 10555 10562 10570 10577 10583 10596 10607 10617 10626 10634
10646 10645 10643 10642 10640 10637 10635 10633 10631 10628 10625 10622 10620 10617 10614 10611 10607 10604 10600 10597 10592 10586 10581 10575 10568 10562 10556 10550 10544 10537 10530 10521 10512 10504 10494 10486 10481 10475 10469 10464 10458 10453 10449 10445 10441 10438 10437 10435 10434 10434 10434 10434 10435 10435 10435 10435 10436 10438 10438 10439 10440 10441 10444 10447 10450 10453 10455 10460 10464 10469 10477 10484 10492 10499 10505 10515 10525 10534 10543 10552 10562 10570 10577 10589 10601 10610 10618 10627
10642 10641 10640 10638 10636 10634 10631 10629 10627 10624 10622 10619 10616 10613 10610 10606 10603 10599 10595 10591 10587 10581 10576 10570 10564 10557 10551 10545 10538 10531 10524 10516 10507 10498 10490 10483 10478 10472 10466 10460 10456 10451 10446 10442 10439 10435 10433 10432 10430 10430 10430 10430 10430 10430 10430 10430 10431 10432 10432 10433 10434 10436 10438 10441 10444 10448 10450 10454 10458 10464 10472 10478 10485 10493 10498 10508 10520 10530 10540 10549 10560 10567 10572 10583 10595 10603 10611 10622
10638 10637 10636 10634 10632 10630 10628 10625 10623 10620 10618 10615 10612 10609 10605 10602 10598 10594 10591 10587 10582 10577 10571 10565 10560 10553 10546 10539 10533 10526 10519 10512 10503 10495 10488 10482 10476 10469 10463 10458 10454 10449 10444 10440 10437 10434 10432 10430 10428 10427 10427 10426 10426 10425 10426 10426 10427 10427 10427 10429 10430 10432 10434 10436 10440 10442 10445 10450 10455 10460 10466 10471 10477 10484 10492 10503 10515 10526 10536 10545 10553 10558 10563 10576 10590 10598 10606 10617
10635 10633 10632 10630 10628 10627 10624 10621 10619 10617 10614 10612 10609 10605 10602 10598 10595 10590 10586 10583 10578 10573 10567 10560 10554 10548 10541 10534 10527 10521 10514 10507 10499 10492 10486 10480 10474 10467 10461 10456 10452 10448 10443 10438 10435 10433 10431 10429 10427 10425 10424 10423 10422 10422 10422 10422 10423 10423 10424 10425 10427 10428 10430 10432 10435 10437 10442 10447 10450 10455 10460 10464 10470 10479 10488 10497 10507 10517 10526 10534 10542 10549 10559 10573 10586 10592 10602 10612
10631 10630 10629 10627 10625 10623 10621 10618 10615 10613 10610 10608 10605 10602 10598 10595 10591 10586 10582 10579 10574 10568 10563 10557 10551 10544 10538 10530 10523 10517 10510 10503 10497 10490 10483 10477 10471 10465 10460 10455 10450 10446 10442 10437 10434 10432 10430 10427 10425 10423 10422 10420 10419 10419 10419 10419 10420 10420 10421 10423 10424 10425 10427 10428 10430 10433 10437 10441 10445 10451 10456 10461 10468 10476 10483 10491 10500 10507 10514 10523 10535 10545 10556 10568 10578 10586 10597 10605
10628 10627 10625 10623 10621 10619 10618 10615 10612 10609 10606 10604 10601 10598 10595 10591 10588 10583 10578 10574 10570 10565 10559 10552 10547 10541 10534 10526 10520 10513 10506 10500 10494 10487 10480 10475 10469 10464 10460 10455 10449 10445 10441 10437 10434 10432 10429 10426 10423 10421 10420 10418 10417 10417 10417 10417 10417 10417 10419 10420 10421 10422 10423 10423 10426 10429 10432 10436 10441 10447 10452 10458 10464 10471 10477 10486 10494 10501 10509 10518 10529 10540 10552 10562 10572 10582 10590 10594
10624 10623 10622 10620 10618 10616 10614 10612 10609 10606 10603 10600 10597 10594 10591 10587 10584 10580 10575 10570 10565 10560 10555 10548 10542 10536 10530 10522 10515 10509 10503 10497 10490 10484 10478 10473 10468 10464 10459 10455 10450 10445 10441 10438 10434 10430 10427 10424 10422 10420 10418 10417 10416 10415 10415 10414 10414 10415 10416 10417 10418 10418 10419 10420 10422 10425 10429 10434 10439 10444 10449 10454 10460 10466 10473 10480 10486 10494 10503 10512 10523 10534 10542 10549 10559 10568 10572 10577
10620 10619 10618 10617 10615 10613 10611 10608 10606 10603 10599 10596 10593 10590 10587 10583 10580 10575 10571 10567 10562 10556 10550 10544 10537 10532 10525 10518 10511 10505 10498 10493 10488 10482 10477 10472 10467 10463 10458 10454 10449 10445 10440 10437 10433 10429 10426 10423 10421 10419 10417 10416 10415 10413 10413 10413 10413 10413 10414 10415 10416 10416 10417 10419 10421 10424 10428 10432 10436 10441 10445 10450 10455 10460 10467 10472 10477 10485 10493 10505 10516 10523 10525 10529 10539 10546 10549 10554
10616 10616 10615 10613 10611 10610 10607 10604 10602 10600 10596 10593 10590 10586 10583 10579 10576 10572 10566 10562 10558 10553 10546 10540 10534 10528 10521 10514 10508 10502 10495 10491 10486 10481 10476 10471 10466 10462 10458 10453 10448 10443 10439 10435 10431 10429 10426 10423 10421 10419 10417 10415 10414 10413 10412 10412 10412 10412 10413 10413 10413 10414 10416 10418 10420 10423 10426 10430 10434 10438 10441 10445 10449 10454 10461 10468 10476 10484 10491 10499 10504 10506 10512 10524 10536 10541 10545 10553
10612 10612 10611 10610 10608 10606 10604 10601 10598 10596 10593 10590 10587 10583 10579 10575 10572 10569 10564 10557 10553 10548 10543 10536 10530 10524 10518 10511 10505 10499 10494 10489 10485 10479 10475 10470 10465 10462 10458 10453 10448 10444 10439 10435 10432 10429 10426 10423 10421 10419 10417 10415 10414 10413 10412 10412 10412 10412 10412 10412 10412 10414 10416 10418 10421 10423 10424 10428 10432 10435 10438 10442 10447 10453 10461 10468 10477 10485 10492 10499 10501 10503 10513 10525 10534 10541 10548 10561
10608 10608 10608 10606 10605 10603 10601 10598 10595 10592 10590 10587 10584 10580 10576 10572 10568 10564 10561 10555 10549 10544 10538 10532 10526 10520 10514 10507 10501 10496 10491 10487 10483 10478 10474 10469 10465 10461 10457 10453 10449 10444 10440 10436 10432 10429 10425 10422 10420 10418 10416 10415 10414 10413 10412 10412 10412 10412 10412 10412 10413 10414 10416 10418 10421 10421 10423 10426 10429 10433 10438 10442 10446 10453 10460 10468 10475 10483 10491 10500 10505 10512 10520 10526 10531 10538 10548 10562
10605 10605 10604 10603 10602 10600 10598 10595 10592 10589 10587 10583 10581 10577 10573 10569 10565 10560 10556 10551 10546 10540 10534 10528 10522 10516 10510 10504 10498 10494 10490 10485 10481 10477 10472 10468 10465 10461 10457 10453 10449 10445 10441 10437 10434 10430 10426 10423 10421 10419 10417 10415 10414 10414 10413 10412 10413 10413 10413 10413 10413 10414 10416 10418 10419 10421 10423 10425 10428 10432 10436 10440 10446 10454 10461 10467 10474 10481 10489 10497 10504 10513 10521 10526 10531 10538 10548 10560
10601 10601 10601 10600 10598 10597 10594 10592 10589 10586 10584 10580 10577 10575 10570 10566 10562 10557 10552 10548 10542 10536 10531 10524 10518 10511 10505 10500 10495 10491 10487 10483 10479 10475 10470 10467 10464 10460 10457 10453 10450 10446 10443 10439 10436 10432 10428 10425 10422 10420 10418 10417 10415 10414 10413 10413 10413 10413 10414 10414 10413 10414 10416 10417 10419 10421 10423 10425 10428 10433 10436 10439 10447 10454 10460 10467 10473 10479 10486 10493 10500 10508 10516 10523 10529 10535 10543 10553
10598 10598 10597 10596 10595 10594 10591 10588 10586 10583 10581 10577 10574 10572 10568 10563 10559 10554 10549 10544 10539 10532 10527 10521 10514 10507 10501 10496 10493 10489 10485 10481 10478 10473 10469 10466 10463 10460 10457 10453 10451 10448 10444 10441 10437 10433 10430 10427 10424 10421 10419 10418 10416 10415 10414 10413 10413 10413 10413 10414 10414 10415 10416 10418 10420 10421 10423 10426 10429 10433 10437 10442 10448 10454 10459 10466 10472 10478 10484 10490 10497 10504 10512 10520 10526 10531 10539 10549
10595 10594 10594 10593 10592 10590 10588 10585 10583 10581 10578 10574 10570 10568 10565 10560 10555 10551 10546 10540 10535 10529 10523 10516 10509 10503 10499 10494 10491 10488 10484 10480 10476 10472 10468 10465 10462 10459 10457 10454 10451 10449 10445 10442 10439 10435 10432 10428 10425 10422 10420 10418 10416 10415 10414 10413 10413 10412 10413 10413 10414 10415 10416 10418 10420 10421 10424 10427 10430 10435 10439 10443 10448 10454 10460 10466 10471 10477 10484 10490 10495 10501 10508 10515 10522 10530 10538 10548
10592 10591 10591 10590 10589 10587 10585 10583 10581 10578 10575 10572 10568 10564 10561 10557 10552 10547 10542 10536 10531 10525 10518 10512 10505 10499 10496 10492 10489 10486 10482 10478 10474 10471 10468 10465 10462 10460 10457 10455 10452 10450 10447 10444 10440 10437 10433 10430 10427 10424 10421 10419 10417 10416 10415 10414 10413 10413 10413 10414 10414 10415 10416 10418 10420 10423 10425 10427 10431 10436 10440 10445 10452 10457 10462 10468 10474 10479 10484 10489 10495 10500 10505 10511 10518 10526 10534 10543
10589 10588 10587 10587 10586 10584 10582 10580 10578 10575 10571 10569 10566 10561 10557 10553 10548 10544 10539 10533 10527 10521 10514 10507 10502 10497 10493 10490 10487 10484 10480 10476 10473 10470 10467 10465 10462 10460 10458 10456 10453 10451 10448 10445 10442 10438 10435 10431 10429 10426 10423 10420 10418 10417 10417 10416 10415 10414 10414 10415 10415 10416 10418 10419 10421 10424 10427 10430 10435 10439 10443 10450 10457 10461 10465 10471 10478 10484 10488 10492 10496 10501 10505 10510 10516 10522 10528 10537
10587 10586 10584 10584 10582 10580 10579 10577 10575 10572 10569 10565 10563 10560 10555 10550 10545 10540 10535 10529 10523 10517 10510 10504 10499 10495 10492 10488 10485 10482 10479 10475 10472 10469 10466 10464 10462 10460 10459 10456 10455 10452 10450 10447 10444 10440 10437 10434 10431 10429 10426 10423 10421 10419 10418 10417 10416 10415 10415 10416 10416 10417 10418 10420 10422 10425 10428 10432 10437 10441 10446 10453 10458 10460 10464 10470 10476 10482 10487 10491 10495 10499 10503 10509 10514 10519 10524 10533
10584 10583 10582 10581 10579 10577 10576 10575 10572 10569 10566 10563 10559 10556 10552 10547 10542 10537 10532 10526 10519 10513 10507 10502 10497 10494 10491 10487 10483 10480 10477 10474 10471 10468 10465 10464 10462 10460 10459 10457 10456 10454 10452 10449 10446 10443 10440 10437 10434 10431 10428 10425 10423 10421 10419 10418 10417 10417 10416 10417 10417 10417 10418 10420 10423 10427 10430 10434 10438 10443 10450 10455 10457 10459 10462 10467 10471 10476 10480 10484 10490 10495 10499 10504 10509 10514 10521 10529
10582 10581 10580 10579 10577 10575 10574 10572 10569 10567 10564 10561 10557 10552 10548 10543 10538 10533 10528 10523 10516 10509 10504 10499 10496 10492 10490 10486 10483 10479 10476 10473 10469 10467 10465 10463 10462 10461 10460 10458 10457 10455 10453 10450 10448 10446 10443 10439 10436 10434 10431 10428 10425 10423 10421 10419 10419 10418 10418 10418 10418 10418 10419 10420 10423 10427 10431 10435 10440 10445 10450 10454 10456 10459 10462 10465 10469 10474 10478 10482 10488 10493 10497 10500 10504 10510 10518 10525
10579 10579 10577 10576 10575 10573 10572 10570 10567 10564 10561 10558 10554 10550 10546 10540 10535 10530 10524 10519 10513 10507 10501 10497 10494 10491 10487 10484 10481 10477 10474 10471 10468 10466 10464 10463 10462 10461 10460 10459 10457 10456 10454 10452 10450 10448 10445 10442 10439 10436 10433 10431 10428 10425 10424 10422 10421 10420 10420 10420 10420 10421 10422 10423 10425 10428 10431 10435 10439 10444 10448 10451 10455 10458 10461 10465 10469 10473 10478 10482 10487 10490 10494 10498 10502 10508 10515 10521
10577 10576 10575 10574 10572 10571 10570 10567 10564 10561 10558 10555 10551 10547 10543 10538 10532 10527 10521 10514 10509 10504 10500 10496 10492 10489 10486 10482 10479 10476 10472 10469 10466 10464 10463 10462 10461 10461 10460 10459 10458 10457 10455 10453 10452 10450 10448 10445 10442 10440 10437 10434 10431 10428 10427 10425 10423 10423 10422 10423 10423 10424 10425 10427 10428 10430 10433 10435 10438 10442 10447 10450 10454 10457 10460 10464 10468 10471 10476 10480 10484 10487 10490 10495 10500 10505 10511 10516
10574 10574 10573 10571 10570 10569 10568 10565 10562 10559 10556 10552 10548 10544 10540 10535 10529 10524 10517 10511 10505 10502 10498 10494 10491 10488 10484 10481 10477 10474 10470 10467 10464 10463 10462 10461 10461 10460 10460 10459 10458 10457 10456 10454 10453 10452 10450 10448 10446 10443 10441 10438 10435 10432 10430 10429 10427 10426 10425 10426 10426 10427 10428 10430 10431 10433 10435 10437 10439 10443 10447 10451 10454 10458 10461 10464 10466 10470 10474 10478 10481 10484 10488 10492 10497 10502 10507 10512
10572 10572 10570 10568 10567 10567 10565 10562 10559 10556 10553 10549 10545 10541 10537 10532 10526 10520 10514 10508 10503 10500 10496 10493 10490 10486 10483 10479 10475 10472 10468 10465 10463 10461 10460 10460 10460 10459 10460 10459 10458 10458 10457 10455 10455 10454 10452 10451 10449 10447 10445 10442 10439 10437 10435 10433 10432 10430 10430 10429 10430 10431 10432 10434 10436 10438 10440 10442 10443 10446 10449 10452 10456 10459 10461 10464 10466 10469 10473 10476 10480 10484 10487 10491 10495 10500 10505 10510
10570 10570 10568 10567 10565 10564 10563 10561 10557 10554 10550 10547 10543 10538 10534 10529 10524 10517 10511 10506 10502 10498 10494 10491 10488 10485 10481 10477 10473 10470 10467 10463 10461 10460 10459 10459 10459 10459 10459 10459 10459 10458 10457 10456 10456 10455 10454 10453 10452 10450 10448 10446 10444 10441 10439 10438 10436 10435 10435 10435 10435 10436 10436 10438 10441 10442 10444 10445 10447 10449 10451 10454 10456 10458 10461 10463 10465 10469 10472 10475 10479 10482 10486 10490 10494 10499 10504 10510
10568 10567 10566 10565 10563 10562 10560 10558 10555 10552 10548 10544 10540 10536 10531 10526 10521 10515 10509 10505 10501 10497 10493 10490 10487 10484 10480 10476 10472 10468 10465 10461 10459 10458 10458 10458 10458 10458 10459 10459 10459 10458 10457 10457 10456 10456 10456 10455 10454 10453 10452 10450 10448 10446 10444 10443 10441 10440 10439 10439 10440 10440 10441 10442 10444 10445 10447 10448 10449 10451 10453 10455 10457 10458 10460 10462 10465 10468 10471 10474 10477 10480 10484 10488 10492 10497 10502 10507
10566 10565 10563 10562 10561 10560 10557 10555 10552 10549 10546 10542 10538 10533 10529 10524 10518 10512 10507 10503 10499 10496 10492 10489 10486 10482 10479 10475 10470 10467 10463 10460 10458 10457 10457 10457 10457 10457 10458 10459 10459 10458 10458 10457 10457 10457 10457 10457 10456 10455 10455 10453 10452 10450 10449 10447 10446 10445 10444 10443 10443 10444 10444 10445 10446 10448 10449 10450 10451 10453 10454 10456 10457 10459 10461 10463 10465 10467 10470 10473 10476 10479 10482 10486 10489 10493 10498 10502
10564 10563 10561 10561 10560 10558 10555 10553 10550 10547 10543 10539 10535 10531 10527 10522 10516 10511 10506 10502 10498 10494 10491 10488 10485 10481 10478 10474 10469 10466 10462 10459 10457 10456 10456 10456 10457 10457 10457 10458 10459 10458 10458 10458 10457 10457 10458 10458 10457 10457 10457 10456 10455 10454 10453 10452 10451 10450 10449 10448 10448 10448 10448 10449 10449 10450 10451 10452 10454 10455 10456 10457 10458 10459 10461 10463 10464 10467 10469 10471 10474 10476 10479 10482 10486 10490 10494 10498
10562 10561 10560 10559 10557 10556 10554 10551 10547 10544 10541 10537 10533 10529 10524 10519 10514 10509 10505 10501 10497 10494 10491 10488 10484 10481 10477 10473 10468 10464 10461 10458 10456 10455 10455 10455 10456 10456 10457 10458 10458 10458 10458 10458 10458 10457 10458 10458 10458 10458 10458 10458 10458 10458 10457 10456 10455 10454 10453 10453 10453 10453 10453 10453 10453 10454 10454 10455 10456 10457 10458 10459 10460 10461 10462 10463 10465 10466 10468 10470 10472 10474 10477 10480 10483 10486 10490 10494
10559 10558 10558 10557 10555 10553 10551 10549 10546 10542 10539 10535 10531 10527 10522 10517 10513 10508 10504 10500 10497 10494 10491 10487 10484 10480 10476 10472 10468 10464 10460 10457 10455 10455 10455 10455 10455 10455 10456 10457 10457 10458 10458 10458 10458 10458 10458 10458 10459 10459 10459 10460 10460 10460 10459 10459 10459 10458 10457 10457 10457 10457 10457 10457 10457 10457 10458 10459 10459 10460 10461 10461 10462 10463 10464 10465 10466 10467 10468 10470 10471 10473 10475 10478 10480 10483 10487 10491